Regional Weather Roundup
Issued by NWS

Home | Current Version | Previous Version | Text Only | Print | Product List | Glossary Off
Versions: 1 2 3 4 5 6 7 8 9 10 11 12 13 14 15 16 17 18 19 20 21 22 23 24 25 26 27 28 29 30 31 32 33 34 35 36 37 38 39 40 41 42 43 44 45 46 47 48 49 50

000
ASUS43 KBIS 241310
RWRND

NORTH DAKOTA REGIONAL WEATHER ROUNDUP
NATIONAL WEATHER SERVICE BISMARCK ND
800 AM CDT SAT JUN 24 2017

NOTE: "FAIR" INDICATES FEW OR NO CLOUDS BELOW 12,000 FEET WITH NO
SIGNIFICANT WEATHER AND/OR OBSTRUCTIONS TO VISIBILITY.


NDZ001>003-009>011-017-241400-
NORTHWEST NORTH DAKOTA

CITY           SKY/WX    TMP DP  RH WIND       PRES   REMARKS
WILLISTON      SUNNY     49  37  63 N15G23    30.24R
MINOT          CLOUDY    47  41  80 W22       30.14R
MINOT AFB      PTSUNNY   47  40  77 NW18      30.13R
$$

NDZ018>021-031>035-040>046-241400-
SOUTHWEST NORTH DAKOTA

CITY           SKY/WX    TMP DP  RH WIND       PRES   REMARKS
BISMARCK       SUNNY     53  41  63 NW12      30.15S
DICKINSON      SUNNY     49  34  56 NW15      30.20R
GARRISON         N/A     45  39  79 NW20      30.15R
HETTINGER ARPT PTSUNNY   52  35  52 NW13      30.23R
$$

NDZ004>008-012>016-024-026-027-054-241400-
NORTHEAST NORTH DAKOTA

CITY           SKY/WX    TMP DP  RH WIND       PRES   REMARKS
GRAND FORKS    PTSUNNY   52  49  89 NW12      29.99R
GRND FRKS AFB  CLOUDY    51  48  90 NW8       30.00R
DEVILS LAKE    MOSUNNY   49  43  80 NW18      30.05R
$$

NDZ022-023-025-028>030-036>039-047>053-241400-
SOUTHEAST NORTH DAKOTA

CITY           SKY/WX    TMP DP  RH WIND       PRES   REMARKS
FARGO          CLOUDY    54  45  71 W15       30.00S
JAMESTOWN      SUNNY     50  42  74 NW17      30.06R
$$





USA.gov is the U.S. government's official web portal to all federal, state and local government web resources and services.